Location: Bonnesvalyn
(49.1218°N, 3.3177°E)
Time: 11:39:47
(UTC+00:00)

Cosmos 2278 Rocket - Pass Details

Date: 09 February 2023
Orbit: 841 x 845 km, 71.0° (Epoch: 23 March)

Event Time Altitude Azimuth Distance (km) Brightness Sun altitude
Rises 18:27:18 0° 332° (NNW) 3,416 5.7 -15.2°
Reaches altitude 10° 18:29:47 10° 336° (NNW) 2,477 4.9 -15.7°
Maximum altitude 18:35:26 65° 58° (ENE) 928 2.2 -16.6°
Enters shadow 18:40:40 12° 140° (SE) 2,319 4.1 -17.4°
